Weather History for PAFA - July, 2012

Change the Weather History Date:

Wednesday, July 18, 2012

  Actual Average Record
Temperature  
Mean Temperature 54 °F 62 °F  
Max Temperature 58 °F 73 °F 84 °F (1962)
Min Temperature 50 °F 52 °F 35 °F (1959)
Degree Days  
Heating Degree Days 11 3  
Month to date heating degree days 87 54  
Since 1 June heating degree days 202 214  
Since 1 July heating degree days 87 54  
Cooling Degree Days 0 1  
Month to date cooling degree days 4 22  
Year to date cooling degree days 25 46  
Since 1 June cooling degree days 25 45  
Growing Degree Days 4 (Base 50)    
Moisture  
Dew Point 47 °F    
Average Humidity 81    
Maximum Humidity 93    
Minimum Humidity 57    
Precipitation  
Precipitation 0.10 in 0.07 in 1.02 in (2005)
Month to date precipitation 0.60 1.20  
Year to date precipitation 4.64 4.73  
Snow  
Snow 0.00 in 0.00 in 0.00 in (2002)
Month to date snowfall 0.0 0.0  
Since 1 June snowfall 0.0 0.0  
Since 1 July snowfall 0.0 0.0  
Snow Depth 0.00 in    
Sea Level Pressure  
Sea Level Pressure 29.99 in    
Wind  
Wind Speed 1 mph (ESE)    
Max Wind Speed 6 mph    
Max Gust Speed -    
Visibility 10 miles    
Events Rain    
T = Trace of Precipitation, MM = Missing Value Source: NWS Daily Summary

Daily Weather History Graph

Daily Weather History Graph

Search for Another Location

Airport or City:

Trip Planner

Search our weather history database for the weather conditions in past years. The results will help you decide how hot, cold, wet, or windy it might be!

Date:

Astronomy

Jul. 18, 2012 Rise Set
Actual Time 4:05 AM AKDT 11:47 PM AKDT
Civil Twilight 2:30 AM AKDT 1:25 AM AKDT
Nautical Twilight Sun does not set Sun does not set
Astronomical Twilight Sun does not set Sun does not set
Moon 4:20 AM AKDT (7/18) 10:33 PM AKDT (7/18)
Length of Visible Light 22h 55m
Length of Day
19h 41m
Waning Crescent, 0% of the Moon is Illuminated
Jul 18
Waning Crescent
Jul 18
New
Jul 26
First Quarter
Aug 1
Full
Aug 9
Last Quarter

Hourly Weather History & Observations

Time (AKDT) Temp. Dew Point Humidity Pressure Visibility Wind Dir Wind Speed Gust Speed Precip Events Conditions
12:53 AM 54.0 °F 45.0 °F 72% 30.03 in 10.0 mi Calm Calm - N/A   Overcast
1:53 AM 53.1 °F 45.0 °F 74% 30.03 in 10.0 mi Calm Calm - N/A   Overcast
2:53 AM 52.0 °F 46.0 °F 80% 30.02 in 10.0 mi Calm Calm - N/A   Overcast
3:53 AM 52.0 °F 46.0 °F 80% 30.02 in 10.0 mi Calm Calm - N/A   Overcast
4:53 AM 52.0 °F 46.0 °F 80% 30.02 in 10.0 mi Calm Calm - N/A   Overcast
5:53 AM 51.1 °F 48.0 °F 89% 30.04 in 10.0 mi Calm Calm - 0.00 in Rain Light Rain
6:53 AM 50.0 °F 48.0 °F 93% 30.03 in 10.0 mi Calm Calm - 0.01 in Rain Light Rain
7:53 AM 51.1 °F 48.0 °F 89% 30.03 in 10.0 mi Calm Calm - 0.02 in Rain Light Rain
8:53 AM 50.0 °F 48.0 °F 93% 30.02 in 10.0 mi Calm Calm - 0.01 in Rain Light Rain
9:39 AM 51.8 °F 48.2 °F 88% 30.01 in 10.0 mi Calm Calm - 0.00 in   Overcast
9:53 AM 51.1 °F 48.0 °F 89% 30.02 in 10.0 mi SSE 3.5 mph - 0.00 in   Overcast
10:53 AM 51.1 °F 48.0 °F 89% 30.01 in 10.0 mi South 3.5 mph - N/A   Overcast
11:53 AM 52.0 °F 48.0 °F 86% 30.01 in 10.0 mi South 3.5 mph - N/A   Overcast
12:53 PM 53.1 °F 48.0 °F 83% 30.00 in 10.0 mi South 3.5 mph - N/A   Overcast
1:53 PM 55.0 °F 46.9 °F 74% 30.00 in 10.0 mi Variable 3.5 mph - N/A   Overcast
2:53 PM 55.0 °F 46.0 °F 72% 29.99 in 10.0 mi Variable 3.5 mph - N/A   Overcast
3:53 PM 57.0 °F 46.0 °F 67% 29.98 in 10.0 mi Calm Calm - N/A   Overcast
4:53 PM 57.0 °F 46.0 °F 67% 29.96 in 10.0 mi South 3.5 mph - N/A   Overcast
5:53 PM 57.9 °F 46.0 °F 65% 29.96 in 10.0 mi Calm Calm - N/A   Overcast
6:53 PM 55.9 °F 48.9 °F 77% 29.95 in 10.0 mi Calm Calm - 0.00 in Rain Light Rain
7:53 PM 54.0 °F 50.0 °F 86% 29.94 in 7.0 mi ENE 4.6 mph - 0.02 in Rain Light Rain
8:53 PM 54.0 °F 50.0 °F 86% 29.94 in 10.0 mi NE 3.5 mph - 0.00 in   Overcast
9:53 PM 53.1 °F 48.9 °F 86% 29.94 in 10.0 mi NE 4.6 mph - 0.00 in Rain Light Rain
10:53 PM 53.1 °F 48.9 °F 86% 29.94 in 10.0 mi NE 3.5 mph - 0.00 in   Overcast
11:53 PM 52.0 °F 50.0 °F 93% 29.94 in 10.0 mi North 5.8 mph - 0.01 in Rain Light Rain